Regional Weather Roundup
Issued by NWS New Orleans/Baton Rouge, LA

Home | Current Version | Previous Version | Text Only | Print | Product List | Glossary On
Versions: 1 2 3 4 5 6 7 8 9 10 11 12 13 14 15 16 17 18 19 20 21 22 23 24 25 26 27 28 29 30 31 32 33 34 35 36 37 38 39 40 41 42 43 44 45 46 47 48 49 50
254
ASUS44 KLIX 240913
RWRLIX
NEW ORLEANS REGIONAL WEATHER ROUNDUP
NATIONAL WEATHER SERVICE NEW ORLEANS LA
400 AM CDT MON JUL 24 2017

NOTE: "FAIR" INDICATES FEW OR NO CLOUDS BELOW 12,000 FEET WITH NO
      SIGNIFICANT WEATHER AND/OR OBSTRUCTIONS TO VISIBILITY.
      SKY/WX - SKY CONDITION AND SIGNIFICANT WEATHER.
      TMP - AIR TEMPERATURE.     DP    - DEWPOINT TEMPERATURE.
      RH  - RELATIVE HUMIDITY.   PRES  - PRESSURE.
      HI  - HEAT INDEX.          WCI   - WIND CHILL INDEX.

*  THESE STATIONS ARE NOT NWS OR FAA STATIONS AND ARE NOT UNDER
   NWS QUALITY CONTROL.

LAZ038-040-048-061>063-065>067-069-241000-
SOUTHEAST LOUISIANA

CITY           SKY/WX    TMP DP  RH WIND       PRES   REMARKS
N.O. INTL ARPT CLOUDY    79  75  87 S8        29.97F
N.O. LAKEFRONT CLOUDY    81  75  82 SW13      29.97F
N.O. DOWNTOWN*   N/A     81  75  82 S6          N/A
RESERVE*         N/A     81  75  83 SW9G17    29.98S
SLIDELL        CLOUDY    80  73  79 SW5       29.96F
BATON ROUGE    CLOUDY    79  75  87 S9        29.95F
BOOTHVILLE     NOT AVBL
BELLE CHASSE   NOT AVBL
BOGALUSA*      CLOUDY    76  73  89 CALM      29.97F
GALLIANO*      CLOUDY    80  75  84 SW6       29.99S
NEW ROADS*       N/A     76  75  96 CALM      29.95S
GONZALES*      PTSUNNY   77  76  95 SW6       29.96S
HAMMOND*       CLOUDY    77  72  83 SW7       29.96S
HOUMA*         NOT AVBL
PORT FOURCHON* PTSUNNY   82  77  83 SW7       29.99S

$$

MSZ070-080>082-241000-
SOUTHERN MISSISSIPPI

CITY           SKY/WX    TMP DP  RH WIND       PRES   REMARKS
MCCOMB         CLOUDY    75  73  93 S5        29.95F
GULFPORT       MOCLDY    76  74  93 CALM      29.96S
BILOXI         MOCLDY    79  73  82 CALM      29.96S
PASCAGOULA     CLOUDY    75  72  90 N3        29.97R

$$

COASTAL OBSERVATIONS
LAKE AND NEARSHORE STATIONS

STATION/POSITION TIME  TEMP    WIND        PRES    WAVE
                       AIR SEA DIR/SP/G            HT/PER
                 (UTC) (F)     (DEG/KT/KT) (MB)    (FT/S)
PASCAGOULA       0848   77     320/  4/  4 1014.2
WAVELAND YACHT   0848   78 86  250/  6/  9 1014.6
GRAND ISLE       0848   82 85  240/  5/  9 1015.8
SOUTHWEST PASS   0848   83     230/ 12/ 15   N/A
NEW CANAL        0848   80 85  210/  9/ 13 1014.9
SHELL BEACH      0848   80 88  210/  9/ 10 1015.1

OFFSHORE STATIONS

STATION/POSITION TIME  TEMP    WIND        PRES    WAVE
                       AIR SEA DIR/SP/G            HT/PER
                 (UTC) (F)     (DEG/KT/KT) (MB)    (FT/S)
64 S DAUPHIN ISL 0850   83 85  240/ 14/ 16 1015.5    2/ 3

$$





USA.gov is the U.S. government's official web portal to all federal, state and local government web resources and services.